Weather History for KDDC - March, 2014

Change the Weather History Date:

Friday, March 7, 2014

  Actual Average Record
Temperature  
Mean Temperature 41 °F -  
Max Temperature 53 °F 55 °F 85 °F (1879)
Min Temperature 28 °F 28 °F -10 °F (1920)
Degree Days  
Heating Degree Days 24    
Moisture  
Dew Point 30 °F    
Average Humidity 67    
Maximum Humidity 79    
Minimum Humidity 38    
Precipitation  
Precipitation 0.00 in - - ()
Sea Level Pressure  
Sea Level Pressure 29.84 in    
Wind  
Wind Speed 17 mph (NE)    
Max Wind Speed 32 mph    
Max Gust Speed 39 mph    
Visibility 8 miles    
Events      
Averages and records for this station are not official NWS values.
T = Trace of Precipitation, MM = Missing Value Source: NWS Daily Summary

Daily Weather History Graph

Daily Weather History Graph

Search for Another Location

Airport or City:

Trip Planner

Search our weather history database for the weather conditions in past years. The results will help you decide how hot, cold, wet, or windy it might be!

Date:

Astronomy

Mar. 07, 2014 Rise Set
Actual Time 7:02 AM CST 6:39 PM CST
Civil Twilight 6:36 AM CST 7:05 PM CST
Nautical Twilight 6:06 AM CST 7:36 PM CST
Astronomical Twilight 5:35 AM CST 8:06 PM CST
Moon 11:03 AM CST (3/7) 12:39 AM CST (3/7)
Length of Visible Light 12h 29m
Length of Day
11h 36m
Waxing Crescent, 42% of the Moon is Illuminated
Mar 7
Waxing Crescent
Mar 8
First Quarter
Mar 16
Full
Mar 23
Last Quarter
Mar 30
New

Hourly Weather History & Observations

Time (CST) Temp. Windchill Dew Point Humidity Pressure Visibility Wind Dir Wind Speed Gust Speed Precip Events Conditions
12:52 AM 41.0 °F 33.9 °F 30.9 °F 67% 29.76 in 10.0 mi South 12.7 mph - N/A   Clear
1:52 AM 39.9 °F 31.8 °F 30.9 °F 70% 29.75 in 10.0 mi South 15.0 mph - N/A   Clear
2:52 AM 39.0 °F 30.6 °F 30.0 °F 70% 29.73 in 10.0 mi South 15.0 mph - N/A   Clear
3:52 AM 39.9 °F 31.1 °F 30.0 °F 68% 29.69 in 10.0 mi South 17.3 mph - N/A   Clear
4:52 AM 37.9 °F 30.0 °F 28.9 °F 70% 29.69 in 10.0 mi South 12.7 mph - N/A   Clear
5:52 AM 37.9 °F 29.2 °F 30.0 °F 73% 29.68 in 10.0 mi SSE 15.0 mph - N/A   Clear
6:52 AM 37.0 °F 28.5 °F 28.9 °F 73% 29.70 in 10.0 mi SSE 13.8 mph - N/A   Clear
7:52 AM 37.0 °F 32.4 °F 30.0 °F 76% 29.71 in 8.0 mi SSE 5.8 mph - N/A   Clear
8:52 AM 37.9 °F 32.7 °F 30.9 °F 76% 29.72 in 8.0 mi ESE 6.9 mph - N/A   Clear
9:52 AM 41.0 °F 35.2 °F 32.0 °F 70% 29.74 in 9.0 mi NNE 9.2 mph - N/A   Clear
10:52 AM 46.0 °F 43.9 °F 32.0 °F 58% 29.76 in 10.0 mi Variable 4.6 mph - N/A   Clear
11:52 AM 51.1 °F - 33.1 °F 50% 29.74 in 10.0 mi NNE 17.3 mph 21.9 mph N/A   Clear
12:52 PM 52.0 °F - 35.1 °F 53% 29.76 in 10.0 mi NNE 20.7 mph - N/A   Clear
1:52 PM 53.1 °F - 36.0 °F 52% 29.76 in 9.0 mi NNE 26.5 mph 34.5 mph N/A   Clear
2:31 PM 48.0 °F - 36.0 °F 63% 29.78 in 8.0 mi NNE 31.1 mph 38.0 mph N/A   Mostly Cloudy
2:52 PM 46.9 °F - 35.1 °F 63% 29.80 in 7.0 mi NNE 32.2 mph 39.1 mph N/A   Overcast
3:52 PM 42.1 °F 31.5 °F 34.0 °F 73% 29.84 in 7.0 mi NNE 28.8 mph - N/A   Overcast
4:36 PM 41.0 °F 30.5 °F 34.0 °F 76% 29.87 in 6.0 mi NNE 26.5 mph 32.2 mph N/A   Haze
4:52 PM 39.9 °F 29.5 °F 33.1 °F 77% 29.90 in 5.0 mi NNE 24.2 mph - N/A   Haze
5:52 PM 39.0 °F 27.8 °F 32.0 °F 76% 29.94 in 5.0 mi NNE 26.5 mph - N/A   Haze
6:26 PM 37.9 °F 27.1 °F 32.0 °F 79% 29.94 in 5.0 mi NNE 23.0 mph 31.1 mph N/A   Haze
6:37 PM 37.9 °F 26.6 °F 32.0 °F 79% 29.94 in 5.0 mi NNE 25.3 mph 32.2 mph N/A   Haze
6:45 PM 37.9 °F 27.1 °F 30.9 °F 76% 29.94 in 6.0 mi NNE 23.0 mph 32.2 mph N/A   Haze
6:52 PM 37.9 °F 26.1 °F 30.9 °F 76% 29.97 in 7.0 mi NNE 27.6 mph 33.4 mph N/A   Overcast
7:52 PM 36.0 °F 24.2 °F 28.9 °F 76% 30.00 in 8.0 mi NNE 24.2 mph 31.1 mph N/A   Overcast
8:52 PM 35.1 °F 23.5 °F 28.0 °F 76% 30.05 in 8.0 mi NNE 21.9 mph 28.8 mph N/A   Overcast
9:52 PM 33.1 °F 20.3 °F 23.0 °F 66% 30.09 in 10.0 mi NNE 24.2 mph - N/A   Overcast
10:52 PM 30.9 °F 18.1 °F 21.0 °F 67% 30.10 in 10.0 mi North 21.9 mph - N/A   Overcast
11:52 PM 28.9 °F 14.5 °F 19.9 °F 69% 30.12 in 8.0 mi North 25.3 mph 33.4 mph N/A   Overcast